Hourly Weather Rudnya

Today, 16 June, Wednesday

Time Temperature Precipitation Wind Pressure Humidity
00:00 +15°C° 0 mm 2 mps 743 mmHg 92%
01:00 +15°C° 0 mm 2 mps 743 mmHg 94%
02:00 +15°C° 0 mm 2 mps 743 mmHg 96%
03:00 +15°C° 0 mm 2 mps 743 mmHg 96%
04:00 +15°C° 0 mm 2 mps 743 mmHg 96%
05:00 +15°C° 0 mm 2 mps 743 mmHg 96%
06:00 +17°C° 0 mm 2 mps 744 mmHg 88%
07:00 +18°C° 0 mm 2 mps 744 mmHg 79%
08:00 +19°C° 0 mm 3 mps 744 mmHg 71%
09:00 +20°C° 0 mm 3 mps 745 mmHg 65%
10:00 +21°C° 0 mm 3 mps 745 mmHg 59%
11:00 +22°C° 0 mm 3 mps 745 mmHg 53%
12:00 +22°C° 0 mm 3 mps 745 mmHg 52%
13:00 +24°C° 0 mm 3 mps 745 mmHg 50%
14:00 +24°C° 0 mm 3 mps 745 mmHg 49%
15:00 +22°C° 0 mm 3 mps 745 mmHg 51%
16:00 +22°C° 0 mm 3 mps 746 mmHg 54%
17:00 +22°C° 0 mm 3 mps 746 mmHg 56%
18:00 +20°C° 0 mm 3 mps 746 mmHg 61%
19:00 +18°C° 0 mm 3 mps 746 mmHg 66%
20:00 +16°C° 0 mm 3 mps 746 mmHg 71%
21:00 +14°C° 0 mm 3 mps 747 mmHg 72%
22:00 +13°C° 0 mm 3 mps 747 mmHg 73%
23:00 +12°C° 0 mm 3 mps 748 mmHg 74%

Tomorrow, 17 June, Thursday

Time Temperature Precipitation Wind Pressure Humidity
00:00 +13°C° 0 mm 2 mps 748 mmHg 76%
01:00 +12°C° 0 mm 2 mps 748 mmHg 77%
02:00 +12°C° 0 mm 2 mps 749 mmHg 79%
03:00 +12°C° 0 mm 2 mps 749 mmHg 80%
04:00 +12°C° 0 mm 2 mps 749 mmHg 80%
05:00 +13°C° 0 mm 2 mps 750 mmHg 81%
06:00 +15°C° 0 mm 2 mps 750 mmHg 75%
07:00 +17°C° 0 mm 2 mps 750 mmHg 69%
08:00 +19°C° 0 mm 2 mps 750 mmHg 63%
09:00 +20°C° 0 mm 2 mps 751 mmHg 60%
10:00 +22°C° 0 mm 1 mps 751 mmHg 56%
11:00 +24°C° 0 mm 1 mps 751 mmHg 53%
12:00 +24°C° 0 mm 1 mps 751 mmHg 51%
13:00 +25°C° 0 mm 1 mps 751 mmHg 50%
14:00 +25°C° 0 mm 1 mps 751 mmHg 48%
15:00 +25°C° 0 mm 1 mps 751 mmHg 50%
16:00 +25°C° 0 mm 1 mps 751 mmHg 52%
17:00 +25°C° 0 mm 1 mps 751 mmHg 54%
18:00 +23°C° 0 mm 1 mps 751 mmHg 60%
19:00 +22°C° 0 mm 1 mps 751 mmHg 66%
20:00 +18°C° 0 mm 0 mps 751 mmHg 72%
21:00 +17°C° 0 mm 0 mps 751 mmHg 74%
22:00 +16°C° 0 mm 0 mps 752 mmHg 76%
23:00 +15°C° 0 mm 0 mps 752 mmHg 79%

Day after tomorrow, 18 June, Friday

Time Temperature Precipitation Wind Pressure Humidity
00:00 +15°C° 0 mm 0 mps 752 mmHg 80%
01:00 +15°C° 0 mm 1 mps 752 mmHg 81%
02:00 +15°C° 0 mm 1 mps 752 mmHg 83%
03:00 +15°C° 0 mm 1 mps 752 mmHg 83%
04:00 +15°C° 0 mm 1 mps 753 mmHg 83%
05:00 +16°C° 0 mm 1 mps 753 mmHg 84%
06:00 +18°C° 0 mm 1 mps 753 mmHg 78%
07:00 +20°C° 0 mm 1 mps 753 mmHg 73%
08:00 +21°C° 0 mm 2 mps 753 mmHg 68%
09:00 +23°C° 0 mm 2 mps 753 mmHg 64%
10:00 +24°C° 0 mm 2 mps 753 mmHg 60%
11:00 +25°C° 0 mm 3 mps 753 mmHg 56%
12:00 +25°C° 0 mm 3 mps 753 mmHg 55%
13:00 +26°C° 0 mm 3 mps 753 mmHg 54%
14:00 +26°C° 0 mm 3 mps 753 mmHg 53%
15:00 +26°C° 0 mm 3 mps 752 mmHg 56%
16:00 +26°C° 0 mm 3 mps 752 mmHg 59%
17:00 +25°C° 0 mm 2 mps 752 mmHg 62%
18:00 +24°C° 0 mm 2 mps 752 mmHg 68%
19:00 +21°C° 0 mm 2 mps 752 mmHg 75%
20:00 +19°C° 0 mm 2 mps 752 mmHg 81%
21:00 +19°C° 0 mm 2 mps 752 mmHg 83%
22:00 +18°C° 0 mm 2 mps 752 mmHg 86%
23:00 +17°C° 0 mm 2 mps 752 mmHg 89%

19 June, Saturday

Time Temperature Precipitation Wind Pressure Humidity
00:00 +16°C° 0 mm 2 mps 752 mmHg 90%
01:00 +16°C° 0 mm 2 mps 753 mmHg 91%
02:00 +15°C° 0 mm 2 mps 753 mmHg 92%
03:00 +15°C° 0 mm 2 mps 753 mmHg 91%
04:00 +16°C° 0 mm 2 mps 753 mmHg 91%
05:00 +16°C° 0 mm 2 mps 753 mmHg 90%
06:00 +18°C° 0 mm 2 mps 753 mmHg 85%
07:00 +19°C° 0 mm 2 mps 753 mmHg 80%
08:00 +21°C° 0 mm 3 mps 753 mmHg 74%
09:00 +22°C° 0 mm 3 mps 753 mmHg 70%
10:00 +24°C° 0 mm 3 mps 753 mmHg 66%
11:00 +25°C° 0 mm 3 mps 753 mmHg 61%
12:00 +26°C° 0 mm 3 mps 752 mmHg 60%
13:00 +26°C° 0 mm 3 mps 752 mmHg 58%
14:00 +26°C° 0 mm 3 mps 752 mmHg 56%
15:00 +26°C° 0 mm 3 mps 752 mmHg 59%
16:00 +26°C° 0 mm 3 mps 752 mmHg 62%
17:00 +26°C° 0 mm 3 mps 751 mmHg 65%
18:00 +24°C° 0 mm 2 mps 751 mmHg 71%
19:00 +23°C° 0 mm 2 mps 751 mmHg 77%
20:00 +20°C° 0 mm 2 mps 751 mmHg 84%
21:00 +19°C° 0 mm 2 mps 751 mmHg 85%
22:00 +18°C° 0 mm 2 mps 751 mmHg 86%
23:00 +17°C° 0 mm 2 mps 751 mmHg 87%

20 June, Sunday

Time Temperature Precipitation Wind Pressure Humidity
00:00 +16°C° 0 mm 2 mps 752 mmHg 89%
01:00 +16°C° 0 mm 2 mps 752 mmHg 90%
02:00 +15°C° 0 mm 2 mps 752 mmHg 91%
03:00 +16°C° 0 mm 2 mps 752 mmHg 91%
04:00 +16°C° 0 mm 2 mps 752 mmHg 91%
05:00 +16°C° 0 mm 2 mps 752 mmHg 91%
06:00 +18°C° 0 mm 2 mps 752 mmHg 86%
07:00 +19°C° 0 mm 2 mps 752 mmHg 80%
08:00 +21°C° 0 mm 2 mps 752 mmHg 74%
09:00 +23°C° 0 mm 2 mps 752 mmHg 70%
10:00 +24°C° 0 mm 3 mps 751 mmHg 65%
11:00 +25°C° 0 mm 3 mps 751 mmHg 61%
12:00 +25°C° 0 mm 3 mps 751 mmHg 59%
13:00 +26°C° 0 mm 3 mps 751 mmHg 56%
14:00 +26°C° 0 mm 3 mps 751 mmHg 54%
15:00 +26°C° 0 mm 3 mps 750 mmHg 57%
16:00 +26°C° 0 mm 3 mps 750 mmHg 60%
17:00 +26°C° 0 mm 2 mps 750 mmHg 62%
18:00 +24°C° 0 mm 2 mps 750 mmHg 69%
19:00 +21°C° 0 mm 2 mps 750 mmHg 75%
20:00 +21°C° 0 mm 1 mps 750 mmHg 81%
21:00 +19°C° 0 mm 2 mps 749 mmHg 83%
22:00 +18°C° 0 mm 2 mps 749 mmHg 85%
23:00 +17°C° 0 mm 2 mps 749 mmHg 87%

21 June, Monday

Time Temperature Precipitation Wind Pressure Humidity
00:00 +17°C° 0 mm 2 mps 749 mmHg 88%
01:00 +16°C° 0 mm 2 mps 749 mmHg 89%
02:00 +16°C° 0 mm 2 mps 749 mmHg 91%
03:00 +16°C° 0 mm 2 mps 749 mmHg 90%
04:00 +18°C° 0 mm 1 mps 749 mmHg 90%
05:00 +18°C° 0 mm 1 mps 749 mmHg 89%
06:00 +20°C° 0 mm 1 mps 749 mmHg 83%
07:00 +22°C° 0 mm 1 mps 749 mmHg 77%
08:00 +23°C° 0 mm 2 mps 749 mmHg 72%
09:00 +25°C° 0 mm 2 mps 749 mmHg 68%
10:00 +26°C° 0 mm 2 mps 749 mmHg 63%
11:00 +27°C° 0 mm 2 mps 749 mmHg 59%
12:00 +27°C° 0 mm 2 mps 749 mmHg 57%
13:00 +28°C° 0 mm 2 mps 749 mmHg 55%
14:00 +28°C° 0 mm 2 mps 748 mmHg 53%
15:00 +28°C° 0 mm 2 mps 748 mmHg 56%
16:00 +28°C° 0 mm 2 mps 748 mmHg 59%
17:00 +28°C° 0 mm 2 mps 748 mmHg 62%
18:00 +26°C° 0 mm 2 mps 748 mmHg 69%
19:00 +24°C° 0 mm 2 mps 748 mmHg 75%
20:00 +23°C° 0 mm 2 mps 748 mmHg 81%
21:00 +21°C° 0 mm 2 mps 748 mmHg 83%
22:00 +20°C° 0 mm 2 mps 748 mmHg 85%
23:00 +19°C° 0 mm 2 mps 748 mmHg 87%
Show more